Location: ShareBrained
(45.5589°N, 122.6491°W)
Time: 08:29:56
(UTC-08:00)

NOAA 19 - Visible Passes

Search period start: 17 January 2020 00:00
Search period end: 27 January 2020 00:00
Orbit: 840 x 862 km, 99.2° (Epoch: 16 January)

Date Brightness Start Highest point End Pass type
(mag) Time Alt. Az. Time Alt. Az. Time Alt. Az.
17 Jan 8.2 04:32:42 10° ENE 04:34:55 12° E 04:37:08 10° ESE visible
17 Jan 5.2 06:10:51 10° NNE 06:16:22 87° ESE 06:21:49 10° SSW visible
17 Jan 6.7 17:40:01 10° SSW 17:45:12 41° W 17:50:23 10° NNW visible
18 Jan 5.5 05:59:11 10° NNE 06:04:39 70° ESE 06:10:05 10° S visible
18 Jan 6.3 17:28:06 10° S 17:33:27 51° W 17:38:49 10° NNW visible
19 Jan 5.9 05:47:33 10° NNE 05:52:56 56° ESE 05:58:16 10° S visible
20 Jan 6.3 05:35:58 10° NNE 05:41:11 44° E 05:46:22 10° S visible
20 Jan 8.5 18:49:47 10° WSW 18:51:31 11° W 18:53:14 10° WNW visible
21 Jan 6.8 05:24:25 10° NNE 05:29:25 35° E 05:34:23 10° SSE visible
21 Jan 5.7 07:05:07 10° N 07:10:03 36° WNW 07:14:58 10° SW visible
21 Jan 8.3 18:36:38 10° WSW 18:39:38 15° W 18:42:39 10° NW visible
22 Jan 7.2 05:12:58 10° NE 05:17:38 28° E 05:22:17 10° SSE visible
22 Jan 5.5 06:53:17 10° N 06:58:27 44° WNW 07:03:35 10° SW visible
22 Jan 8.1 18:24:00 10° SW 18:27:47 19° W 18:31:35 10° NW visible
23 Jan 7.5 05:01:35 10° NE 05:05:50 23° E 05:10:03 10° SE visible
23 Jan 5.3 06:41:29 10° N 06:46:49 55° WNW 06:52:07 10° SW visible
23 Jan 7.8 18:11:37 10° SW 18:15:58 24° W 18:20:19 10° NW visible
24 Jan 7.9 04:50:20 10° NE 04:53:59 18° E 04:57:38 10° SE visible
24 Jan 5.1 06:29:43 10° N 06:35:10 68° WNW 06:40:34 10° SSW visible
24 Jan 7.4 17:59:25 10° SSW 18:04:09 29° W 18:08:55 10° NW visible
25 Jan 8.1 04:39:19 10° ENE 04:42:08 14° E 04:44:57 10° ESE visible
25 Jan 5.1 06:17:59 10° NNE 06:23:29 85° WNW 06:28:57 10° SSW visible
25 Jan 7.0 17:47:20 10° SSW 17:52:23 37° W 17:57:26 10° NNW visible
26 Jan 8.4 04:28:58 10° ENE 04:30:16 11° E 04:31:33 10° E visible
26 Jan 5.3 06:06:18 10° NNE 06:11:48 78° ESE 06:17:15 10° SSW visible
26 Jan 6.5 17:35:22 10° S 17:40:37 46° W 17:45:53 10° NNW visible
